OK1VCF-8 Weather Reports


time (UTC)temp
C
wind
direction
speed
KPH
gust
KPH
rain 1hr
cm
rain 24hr
cm
rain mn
cm
humidity
%
barometer
mb
20260902163412 23 0 0.0 0.0 0.00 0.00 0.00 44 1020.0
20260902162653 25 0 0.0 0.0 0.00 0.00 0.00 42 1020.0
20260902161934 28 0 0.0 0.0 0.00 0.00 0.00 36 1020.0
20260902161215 31 0 0.0 0.0 0.00 0.00 0.00 32 1020.0
20260902160457 31 0 0.0 0.0 0.00 0.00 0.00 32 1019.9
20260902154315 30 0 0.0 0.0 0.00 0.00 0.00 34 1020.1
20260902153556 26 0 0.0 0.0 0.00 0.00 0.00 41 1020.2
20260902152553 27 0 0.0 0.0 0.00 0.00 0.00 37 1020.2
20260902151836 30 0 0.0 0.0 0.00 0.00 0.00 34 1020.3
20260902151116 26 0 0.0 0.0 0.00 0.00 0.00 38 1020.4
20260902150359 25 0 0.0 0.0 0.00 0.00 0.00 40 1020.4
20260902145639 25 0 0.0 0.0 0.00 0.00 0.00 40 1020.6
20260902144919 25 0 0.0 0.0 0.00 0.00 0.00 40 1020.5
20260902144201 25 0 0.0 0.0 0.00 0.00 0.00 41 1020.6
20260902143442 25 0 0.0 0.0 0.00 0.00 0.00 40 1020.6
20260902142723 25 0 0.0 0.0 0.00 0.00 0.00 40 1020.6
20260902142003 25 0 0.0 0.0 0.00 0.00 0.00 40 1020.8
20260902141243 26 0 0.0 0.0 0.00 0.00 0.00 40 1020.8
20260902140524 26 0 0.0 0.0 0.00 0.00 0.00 38 1020.7
20260902135806 27 0 0.0 0.0 0.00 0.00 0.00 37 1020.9
20260902135047 28 0 0.0 0.0 0.00 0.00 0.00 35 1020.8
20260902134329 28 0 0.0 0.0 0.00 0.00 0.00 36 1021.0
20260902133325 26 0 0.0 0.0 0.00 0.00 0.00 39 1021.0
20260902132605 27 0 0.0 0.0 0.00 0.00 0.00 38 1021.0
20260902131845 27 0 0.0 0.0 0.00 0.00 0.00 39 1021.3
20260902131124 27 0 0.0 0.0 0.00 0.00 0.00 38 1021.4
20260902130358 28 0 0.0 0.0 0.00 0.00 0.00 38 1021.4
20260902125629 27 0 0.0 0.0 0.00 0.00 0.00 36 1021.4
20260902124851 27 0 0.0 0.0 0.00 0.00 0.00 38 1021.4
20260902124119 26 0 0.0 0.0 0.00 0.00 0.00 37 1021.4
20260902123342 26 0 0.0 0.0 0.00 0.00 0.00 38 1021.4
20260902122607 26 0 0.0 0.0 0.00 0.00 0.00 40 1021.5
20260902120344 26 0 0.0 0.0 0.00 0.00 0.00 41 1021.7
20260902115606 25 0 0.0 0.0 0.00 0.00 0.00 41 1021.8
20260902114825 25 0 0.0 0.0 0.00 0.00 0.00 40 1021.8
20260902113800 25 0 0.0 0.0 0.00 0.00 0.00 42 1022.0
20260902113034 23 0 0.0 0.0 0.00 0.00 0.00 44 1022.0
20260902112313 23 0 0.0 0.0 0.00 0.00 0.00 45 1022.1
20260902111555 24 0 0.0 0.0 0.00 0.00 0.00 44 1022.2
20260902110835 24 0 0.0 0.0 0.00 0.00 0.00 45 1022.3
20260902110118 24 0 0.0 0.0 0.00 0.00 0.00 44 1022.4
20260902105400 24 0 0.0 0.0 0.00 0.00 0.00 46 1022.4
20260902104642 25 0 0.0 0.0 0.00 0.00 0.00 43 1022.4
20260902103924 26 0 0.0 0.0 0.00 0.00 0.00 44 1022.4
20260902103204 25 0 0.0 0.0 0.00 0.00 0.00 46 1022.5
20260902102442 24 0 0.0 0.0 0.00 0.00 0.00 49 1022.7
20260902101719 24 0 0.0 0.0 0.00 0.00 0.00 48 1022.4
20260902100956 24 0 0.0 0.0 0.00 0.00 0.00 49 1022.6
20260902100231 23 0 0.0 0.0 0.00 0.00 0.00 52 1022.8
20260902095505 23 0 0.0 0.0 0.00 0.00 0.00 54 1022.8
20260902093035 23 0 0.0 0.0 0.00 0.00 0.00 53 1023.0
20260902092314 23 0 0.0 0.0 0.00 0.00 0.00 54 1023.0
20260902091555 22 0 0.0 0.0 0.00 0.00 0.00 54 1023.0
20260902090838 22 0 0.0 0.0 0.00 0.00 0.00 56 1022.9
20260902090120 22 0 0.0 0.0 0.00 0.00 0.00 58 1023.0
20260902085359 21 0 0.0 0.0 0.00 0.00 0.00 59 1023.0
20260902084641 21 0 0.0 0.0 0.00 0.00 0.00 62 1022.9
20260902083923 20 0 0.0 0.0 0.00 0.00 0.00 63 1023.0
20260902083205 20 0 0.0 0.0 0.00 0.00 0.00 64 1023.0
20260902082448 20 0 0.0 0.0 0.00 0.00 0.00 64 1022.9
20260902081731 20 0 0.0 0.0 0.00 0.00 0.00 64 1023.0
20260902081012 19 0 0.0 0.0 0.00 0.00 0.00 66 1023.1
20260902080253 18 0 0.0 0.0 0.00 0.00 0.00 66 1023.0
20260902075249 18 0 0.0 0.0 0.00 0.00 0.00 67 1023.0
20260902074532 18 0 0.0 0.0 0.00 0.00 0.00 67 1023.0
20260902073814 18 0 0.0 0.0 0.00 0.00 0.00 68 1023.0
20260902073054 17 0 0.0 0.0 0.00 0.00 0.00 68 1023.1
20260902072335 17 0 0.0 0.0 0.00 0.00 0.00 70 1023.1
20260902071615 17 0 0.0 0.0 0.00 0.00 0.00 70 1023.1
20260902070852 17 0 0.0 0.0 0.00 0.00 0.00 72 1023.2
20260902070129 16 0 0.0 0.0 0.00 0.00 0.00 72 1023.2
20260902065402 16 0 0.0 0.0 0.00 0.00 0.00 73 1023.2
20260902064637 16 0 0.0 0.0 0.00 0.00 0.00 74 1023.1
20260902063912 15 0 0.0 0.0 0.00 0.00 0.00 75 1023.2
20260902063145 15 0 0.0 0.0 0.00 0.00 0.00 76 1023.0
20260902062418 15 0 0.0 0.0 0.00 0.00 0.00 77 1023.2
20260902061653 15 0 0.0 0.0 0.00 0.00 0.00 78 1023.0
20260902060925 14 0 0.0 0.0 0.00 0.00 0.00 80 1022.9
20260902055915 15 0 0.0 0.0 0.00 0.00 0.00 78 1023.0
20260902055154 15 0 0.0 0.0 0.00 0.00 0.00 78 1023.0
20260902054435 15 0 0.0 0.0 0.00 0.00 0.00 78 1023.0
20260902053717 14 0 0.0 0.0 0.00 0.00 0.00 80 1023.1
20260902052957 13 0 0.0 0.0 0.00 0.00 0.00 82 1022.9
20260902052240 13 0 0.0 0.0 0.00 0.00 0.00 82 1022.8
20260902051520 13 0 0.0 0.0 0.00 0.00 0.00 84 1022.8
20260902050804 12 0 0.0 0.0 0.00 0.00 0.00 85 1022.8
20260902050045 13 0 0.0 0.0 0.00 0.00 0.00 85 1022.7
20260902045325 12 0 0.0 0.0 0.00 0.00 0.00 85 1022.5
20260902044608 12 0 0.0 0.0 0.00 0.00 0.00 86 1022.5
20260902043852 12 0 0.0 0.0 0.00 0.00 0.00 86 1022.3
20260902043132 12 0 0.0 0.0 0.00 0.00 0.00 87 1022.3
20260902042412 12 0 0.0 0.0 0.00 0.00 0.00 86 1022.2
20260902041653 12 0 0.0 0.0 0.00 0.00 0.00 88 1022.2
20260902040651 11 0 0.0 0.0 0.00 0.00 0.00 88 1022.2
20260902035933 11 0 0.0 0.0 0.00 0.00 0.00 88 1022.1
20260902035215 11 0 0.0 0.0 0.00 0.00 0.00 88 1022.2
20260902034458 11 0 0.0 0.0 0.00 0.00 0.00 88 1022.2
20260902033741 12 0 0.0 0.0 0.00 0.00 0.00 86 1022.2
20260902033022 12 0 0.0 0.0 0.00 0.00 0.00 86 1022.2
20260902032306 12 0 0.0 0.0 0.00 0.00 0.00 88 1022.4
20260902031549 11 0 0.0 0.0 0.00 0.00 0.00 88 1022.4
20260902030831 11 0 0.0 0.0 0.00 0.00 0.00 88 1022.6
20260902030113 12 0 0.0 0.0 0.00 0.00 0.00 87 1022.4
20260902025354 12 0 0.0 0.0 0.00 0.00 0.00 86 1022.5
20260902024638 12 0 0.0 0.0 0.00 0.00 0.00 86 1022.5
20260902023921 12 0 0.0 0.0 0.00 0.00 0.00 86 1022.5
20260902023203 12 0 0.0 0.0 0.00 0.00 0.00 84 1022.4
20260902022446 13 0 0.0 0.0 0.00 0.00 0.00 84 1022.4
20260902021446 12 0 0.0 0.0 0.00 0.00 0.00 84 1022.6
20260902020727 13 0 0.0 0.0 0.00 0.00 0.00 84 1022.5
20260902020010 13 0 0.0 0.0 0.00 0.00 0.00 82 1022.4
20260902015251 13 0 0.0 0.0 0.00 0.00 0.00 84 1022.4
20260902013110 13 0 0.0 0.0 0.00 0.00 0.00 84 1022.4
20260902012351 12 0 0.0 0.0 0.00 0.00 0.00 85 1022.2
20260902011633 12 0 0.0 0.0 0.00 0.00 0.00 85 1022.2
20260902010914 12 0 0.0 0.0 0.00 0.00 0.00 84 1022.0
20260902010150 12 0 0.0 0.0 0.00 0.00 0.00 84 1022.0
20260902005422 12 0 0.0 0.0 0.00 0.00 0.00 84 1022.2
20260902004653 13 0 0.0 0.0 0.00 0.00 0.00 82 1022.2
20260902003928 13 0 0.0 0.0 0.00 0.00 0.00 81 1022.2
20260902003204 13 0 0.0 0.0 0.00 0.00 0.00 80 1022.2
20260902002149 13 0 0.0 0.0 0.00 0.00 0.00 80 1022.2
20260902001420 13 0 0.0 0.0 0.00 0.00 0.00 80 1022.1
20260902000651 14 0 0.0 0.0 0.00 0.00 0.00 80 1022.3
20260901235921 13 0 0.0 0.0 0.00 0.00 0.00 80 1022.2
20260901235139 13 0 0.0 0.0 0.00 0.00 0.00 80 1022.4
20260901234402 13 0 0.0 0.0 0.00 0.00 0.00 80 1022.2
20260901233626 13 0 0.0 0.0 0.00 0.00 0.00 80 1022.3
20260901232855 14 0 0.0 0.0 0.00 0.00 0.00 79 1022.2
20260901232134 14 0 0.0 0.0 0.00 0.00 0.00 78 1022.2
20260901231417 14 0 0.0 0.0 0.00 0.00 0.00 78 1022.2
20260901230702 14 0 0.0 0.0 0.00 0.00 0.00 78 1022.2
20260901225945 14 0 0.0 0.0 0.00 0.00 0.00 77 1022.2
20260901225229 15 0 0.0 0.0 0.00 0.00 0.00 76 1022.3
20260901224511 15 0 0.0 0.0 0.00 0.00 0.00 76 1022.2
20260901223754 15 0 0.0 0.0 0.00 0.00 0.00 76 1022.2
20260901222754 15 0 0.0 0.0 0.00 0.00 0.00 76 1022.4
20260901222035 15 0 0.0 0.0 0.00 0.00 0.00 74 1022.2
20260901221318 15 0 0.0 0.0 0.00 0.00 0.00 75 1022.4
20260901220601 15 0 0.0 0.0 0.00 0.00 0.00 76 1022.4
20260901215843 15 0 0.0 0.0 0.00 0.00 0.00 75 1022.3
20260901215126 15 0 0.0 0.0 0.00 0.00 0.00 74 1022.3
20260901214409 15 0 0.0 0.0 0.00 0.00 0.00 74 1022.3
20260901213653 15 0 0.0 0.0 0.00 0.00 0.00 74 1022.2
20260901212935 15 0 0.0 0.0 0.00 0.00 0.00 74 1022.2
20260901212218 15 0 0.0 0.0 0.00 0.00 0.00 74 1022.1
20260901211500 15 0 0.0 0.0 0.00 0.00 0.00 74 1022.0
20260901210745 15 0 0.0 0.0 0.00 0.00 0.00 74 1022.0
20260901210027 15 0 0.0 0.0 0.00 0.00 0.00 74 1022.0
20260901205310 15 0 0.0 0.0 0.00 0.00 0.00 74 1022.0
20260901204553 15 0 0.0 0.0 0.00 0.00 0.00 73 1022.0
20260901203553 16 0 0.0 0.0 0.00 0.00 0.00 72 1022.0
20260901202836 16 0 0.0 0.0 0.00 0.00 0.00 72 1022.0
20260901202118 16 0 0.0 0.0 0.00 0.00 0.00 72 1022.1
20260901201401 16 0 0.0 0.0 0.00 0.00 0.00 71 1022.0
20260901200645 16 0 0.0 0.0 0.00 0.00 0.00 70 1022.0
20260901195927 16 0 0.0 0.0 0.00 0.00 0.00 70 1022.0
20260901193747 17 0 0.0 0.0 0.00 0.00 0.00 65 1022.0
20260901193028 17 0 0.0 0.0 0.00 0.00 0.00 66 1021.8
20260901192311 17 0 0.0 0.0 0.00 0.00 0.00 65 1021.8
20260901191554 17 0 0.0 0.0 0.00 0.00 0.00 64 1021.8
20260901190838 17 0 0.0 0.0 0.00 0.00 0.00 64 1021.6
20260901190120 17 0 0.0 0.0 0.00 0.00 0.00 62 1021.6
20260901185402 17 0 0.0 0.0 0.00 0.00 0.00 63 1021.6
20260901184400 18 0 0.0 0.0 0.00 0.00 0.00 62 1021.5
20260901183642 18 0 0.0 0.0 0.00 0.00 0.00 62 1021.4
20260901182924 18 0 0.0 0.0 0.00 0.00 0.00 62 1021.4
20260901182206 18 0 0.0 0.0 0.00 0.00 0.00 60 1021.2
20260901181447 20 0 0.0 0.0 0.00 0.00 0.00 58 1021.2
20260901180730 20 0 0.0 0.0 0.00 0.00 0.00 56 1021.2
20260901180010 20 0 0.0 0.0 0.00 0.00 0.00 56 1021.0
20260901175252 20 0 0.0 0.0 0.00 0.00 0.00 56 1020.9
20260901174535 20 0 0.0 0.0 0.00 0.00 0.00 56 1021.0
20260901173818 20 0 0.0 0.0 0.00 0.00 0.00 56 1020.9
20260901173058 20 0 0.0 0.0 0.00 0.00 0.00 55 1020.9
20260901172340 20 0 0.0 0.0 0.00 0.00 0.00 54 1020.8
20260901171621 21 0 0.0 0.0 0.00 0.00 0.00 52 1021.0
20260901170904 21 0 0.0 0.0 0.00 0.00 0.00 50 1020.9
20260901170147 22 0 0.0 0.0 0.00 0.00 0.00 50 1020.9
20260901165144 22 0 0.0 0.0 0.00 0.00 0.00 48 1021.0
20260901164428 23 0 0.0 0.0 0.00 0.00 0.00 44 1021.0
20260901163710 27 0 0.0 0.0 0.00 0.00 0.00 36 1021.0